Location: Hamburg
(53.5500°N, 10.0000°E)
Time: 23:16:03
(UTC+01:00)

Vanguard 1 Rocket - Visible Passes

Search period start: 10 December 2016 00:00
Search period end: 20 December 2016 00:00
Orbit: 650 x 4227 km, 34.3° (Epoch: 09 December)

Date Brightness Start Highest point End Pass type
(mag) Time Alt. Az. Time Alt. Az. Time Alt. Az.
10 Dec 10.8 17:23:43 10° WSW 17:46:17 42° S 18:01:51 10° ESE visible
10 Dec 10.4 19:54:40 10° WSW 20:13:31 35° SSW 20:20:24 25° SSE visible
10 Dec 10.9 22:29:42 10° WSW 22:37:38 15° SW 22:37:42 15° SW visible
11 Dec 11.1 16:10:24 10° SW 16:33:00 41° SSE 16:50:23 10° ESE visible
11 Dec 10.6 18:39:40 10° WSW 19:01:15 41° SSW 19:13:25 16° SE visible
11 Dec 10.6 21:12:31 10° W 21:26:56 24° SW 21:30:44 22° SSW visible
12 Dec 10.9 17:25:19 10° WSW 17:48:18 43° S 18:04:31 10° ESE visible
12 Dec 10.5 19:56:40 10° W 20:15:28 33° SSW 20:23:48 21° SSE visible
12 Dec 11.1 22:33:43 10° WSW 22:39:17 12° SW 22:41:07 12° SW visible
13 Dec 11.1 16:11:51 10° SW 16:34:54 43° S 16:53:05 10° ESE visible
13 Dec 10.8 18:41:31 10° WSW 19:03:14 40° SSW 19:16:56 12° SE visible
13 Dec 10.8 21:15:03 10° W 21:28:40 22° SW 21:34:15 18° SSW visible
14 Dec 11.0 17:27:06 10° WSW 17:50:16 44° S 18:07:04 10° ESE visible
14 Dec 10.7 19:58:48 10° W 20:17:18 31° SW 20:27:26 16° SSE visible
15 Dec 11.2 16:13:31 10° WSW 16:36:47 45° S 16:55:39 10° ESE visible
15 Dec 10.9 18:43:30 10° W 19:05:07 38° SSW 19:20:04 10° SE visible
15 Dec 11.0 21:17:54 10° W 21:30:16 19° SW 21:38:02 13° SSW visible
16 Dec 11.1 17:29:01 10° WSW 17:52:10 44° SSW 18:09:29 10° SE visible
16 Dec 11.0 20:01:05 10° W 20:19:00 28° SW 20:31:22 11° S visible
17 Dec 11.3 16:15:22 10° WSW 16:38:38 46° S 16:58:07 10° ESE visible
17 Dec 11.1 18:45:36 10° W 19:06:54 36° SSW 19:22:12 10° SSE visible
17 Dec 11.2 21:21:20 10° W 21:31:43 16° SW 21:40:02 10° SSW visible
18 Dec 11.2 17:31:03 10° WSW 17:53:59 42° SSW 18:11:46 10° SE visible
18 Dec 11.1 20:03:35 10° W 20:20:33 25° SW 20:33:07 10° S visible
19 Dec 11.4 16:17:23 10° WSW 16:40:28 46° S 17:00:27 10° ESE visible
19 Dec 11.2 18:47:50 10° W 19:08:33 34° SSW 19:24:05 10° SSE visible
19 Dec 11.4 21:25:58 10° WSW 21:33:02 12° WSW 21:39:12 10° SW visible
